Time,TemperatureF,DewpointF,PressureIn,WindDirection,WindDirectionDegrees,WindSpeedMPH,WindSpeedGustMPH,Humidity,HourlyPrecipIn,Conditions,Clouds,dailyrainin,SoftwareType,DateUTC
2013-09-21 00:11:00,78.3,69.0,29.94,East,91,0.0,5.0,74,0.00,,,0.00,weatherlink.com 1.10,2013-09-21 04:11:00,
2013-09-21 00:26:00,78.1,69.0,29.94,SE,127,1.0,4.0,73,0.00,,,0.00,weatherlink.com 1.10,2013-09-21 04:26:00,
2013-09-21 00:41:00,78.1,68.0,29.94,East,96,3.0,4.0,72,0.00,,,0.00,weatherlink.com 1.10,2013-09-21 04:41:00,
2013-09-21 00:56:00,78.1,69.0,29.93,ENE,67,3.0,6.0,73,0.00,,,0.00,weatherlink.com 1.10,2013-09-21 04:56:00,
2013-09-21 01:11:00,77.8,69.0,29.92,ENE,75,0.0,5.0,74,0.00,,,0.00,weatherlink.com 1.10,2013-09-21 05:11:00,
2013-09-21 01:26:00,77.5,69.0,29.92,SE,127,3.0,9.0,76,0.00,,,0.00,weatherlink.com 1.10,2013-09-21 05:26:00,
2013-09-21 01:41:00,77.2,70.0,29.92,NE,49,2.0,6.0,78,0.00,,,0.00,weatherlink.com 1.10,2013-09-21 05:41:00,
2013-09-21 01:56:00,77.0,70.0,29.92,ENE,75,1.0,5.0,79,0.00,,,0.00,weatherlink.com 1.10,2013-09-21 05:56:00,
2013-09-21 02:11:00,76.8,70.0,29.92,ENE,58,2.0,4.0,80,0.00,,,0.00,weatherlink.com 1.10,2013-09-21 06:11:00,
2013-09-21 02:26:00,76.5,70.0,29.91,SE,137,0.0,4.0,80,0.00,,,0.00,weatherlink.com 1.10,2013-09-21 06:26:00,
2013-09-21 02:41:00,76.3,70.0,29.91,East,88,2.0,5.0,81,0.00,,,0.00,weatherlink.com 1.10,2013-09-21 06:41:00,
2013-09-21 02:56:00,76.2,70.0,29.90,East,91,0.0,4.0,81,0.00,,,0.00,weatherlink.com 1.10,2013-09-21 06:56:00,
2013-09-21 03:11:00,75.9,70.0,29.89,SSE,150,0.0,5.0,82,0.00,,,0.00,weatherlink.com 1.10,2013-09-21 07:11:00,
2013-09-21 03:26:00,75.7,70.0,29.89,ESE,112,3.0,3.0,82,0.00,,,0.00,weatherlink.com 1.10,2013-09-21 07:26:00,
2013-09-21 03:41:00,75.8,70.0,29.88,SE,136,1.0,6.0,82,0.00,,,0.00,weatherlink.com 1.10,2013-09-21 07:41:00,
2013-09-21 03:56:00,75.8,70.0,29.87,East,91,0.0,6.0,82,0.00,,,0.00,weatherlink.com 1.10,2013-09-21 07:56:00,
2013-09-21 04:11:00,75.7,70.0,29.87,SE,146,1.0,7.0,82,0.00,,,0.00,weatherlink.com 1.10,2013-09-21 08:11:00,
2013-09-21 04:26:00,75.3,70.0,29.87,ESE,116,0.0,5.0,83,0.00,,,0.00,weatherlink.com 1.10,2013-09-21 08:26:00,
2013-09-21 04:41:00,75.1,70.0,29.86,SE,128,2.0,6.0,83,0.00,,,0.00,weatherlink.com 1.10,2013-09-21 08:41:00,
2013-09-21 04:56:00,74.9,70.0,29.86,East,95,0.0,3.0,84,0.00,,,0.00,weatherlink.com 1.10,2013-09-21 08:56:00,
2013-09-21 05:11:00,74.6,70.0,29.86,ESE,110,0.0,5.0,84,0.00,,,0.00,weatherlink.com 1.10,2013-09-21 09:11:00,
2013-09-21 05:26:00,74.2,70.0,29.86,SE,131,0.0,1.0,85,0.00,,,0.00,weatherlink.com 1.10,2013-09-21 09:26:00,
2013-09-21 05:41:00,73.8,69.0,29.86,ENE,76,0.0,2.0,86,0.00,,,0.00,weatherlink.com 1.10,2013-09-21 09:41:00,
2013-09-21 05:56:00,73.9,70.0,29.87,ESE,119,0.0,2.0,86,0.00,,,0.00,weatherlink.com 1.10,2013-09-21 09:56:00,
2013-09-21 06:11:00,73.8,69.0,29.87,SSE,158,0.0,1.0,86,0.00,,,0.00,weatherlink.com 1.10,2013-09-21 10:11:00,
2013-09-21 06:26:00,73.8,69.0,29.87,ESE,120,0.0,2.0,86,0.00,,,0.00,weatherlink.com 1.10,2013-09-21 10:26:00,
2013-09-21 06:41:00,73.3,69.0,29.88,ESE,112,0.0,0.0,87,0.00,,,0.00,weatherlink.com 1.10,2013-09-21 10:41:00,
2013-09-21 06:56:00,72.9,69.0,29.88,East,89,0.0,1.0,88,0.00,,,0.00,weatherlink.com 1.10,2013-09-21 10:56:00,
2013-09-21 07:11:00,73.1,69.0,29.88,ENE,74,0.0,2.0,88,0.00,,,0.00,weatherlink.com 1.10,2013-09-21 11:11:00,
2013-09-21 07:26:00,73.3,70.0,29.88,ENE,75,0.0,0.0,88,0.00,,,0.00,weatherlink.com 1.10,2013-09-21 11:26:00,
2013-09-21 07:41:00,74.5,70.0,29.88,ENE,72,0.0,3.0,86,0.00,,,0.00,weatherlink.com 1.10,2013-09-21 11:41:00,
2013-09-21 07:57:00,75.9,71.0,29.89,East,86,0.0,1.0,84,0.00,,,0.00,weatherlink.com 1.10,2013-09-21 11:57:00,
2013-09-21 08:12:00,76.6,71.0,29.89,NE,49,1.0,5.0,82,0.00,,,0.00,weatherlink.com 1.10,2013-09-21 12:12:00,
2013-09-21 08:27:00,77.5,71.0,29.89,East,100,0.0,4.0,80,0.00,,,0.00,weatherlink.com 1.10,2013-09-21 12:27:00,
2013-09-21 08:42:00,78.2,71.0,29.89,ESE,111,0.0,5.0,79,0.00,,,0.00,weatherlink.com 1.10,2013-09-21 12:42:00,
2013-09-21 08:57:00,79.2,71.0,29.89,ENE,75,1.0,7.0,77,0.00,,,0.00,weatherlink.com 1.10,2013-09-21 12:57:00,
2013-09-21 09:12:00,79.4,71.0,29.89,ESE,107,2.0,5.0,76,0.00,,,0.00,weatherlink.com 1.10,2013-09-21 13:12:00,
2013-09-21 09:27:00,80.0,71.0,29.89,ENE,70,2.0,6.0,75,0.00,,,0.00,weatherlink.com 1.10,2013-09-21 13:27:00,
2013-09-21 09:42:00,80.3,71.0,29.89,ESE,115,2.0,6.0,74,0.00,,,0.00,weatherlink.com 1.10,2013-09-21 13:42:00,
2013-09-21 09:57:00,80.6,72.0,29.89,ENE,76,1.0,7.0,75,0.00,,,0.00,weatherlink.com 1.10,2013-09-21 13:57:00,
2013-09-21 10:12:00,81.1,72.0,29.89,ENE,64,1.0,8.0,73,0.00,,,0.00,weatherlink.com 1.10,2013-09-21 14:12:00,
2013-09-21 10:27:00,81.8,72.0,29.88,SE,134,1.0,7.0,73,0.00,,,0.00,weatherlink.com 1.10,2013-09-21 14:27:00,
2013-09-21 10:42:00,82.0,72.0,29.88,SSE,153,4.0,7.0,71,0.00,,,0.00,weatherlink.com 1.10,2013-09-21 14:42:00,
2013-09-21 10:57:00,83.6,72.0,29.88,SE,136,4.0,5.0,69,0.00,,,0.00,weatherlink.com 1.10,2013-09-21 14:57:00,
2013-09-21 11:12:00,84.4,72.0,29.88,East,84,1.0,4.0,67,0.00,,,0.00,weatherlink.com 1.10,2013-09-21 15:12:00,
2013-09-21 11:27:00,83.8,71.0,29.88,SSW,198,1.0,7.0,66,0.00,,,0.00,weatherlink.com 1.10,2013-09-21 15:27:00,
2013-09-21 11:42:00,84.3,71.0,29.88,East,80,2.0,5.0,65,0.00,,,0.00,weatherlink.com 1.10,2013-09-21 15:42:00,
2013-09-21 11:57:00,85.4,72.0,29.88,ENE,62,0.0,4.0,64,0.00,,,0.00,weatherlink.com 1.10,2013-09-21 15:57:00,
2013-09-21 12:12:00,86.2,72.0,29.88,SSE,155,0.0,6.0,63,0.00,,,0.00,weatherlink.com 1.10,2013-09-21 16:12:00,
2013-09-21 12:27:00,86.9,71.0,29.88,SSW,212,0.0,5.0,60,0.00,,,0.00,weatherlink.com 1.10,2013-09-21 16:27:00,
2013-09-21 12:42:00,87.4,71.0,29.88,SSE,152,4.0,4.0,59,0.00,,,0.00,weatherlink.com 1.10,2013-09-21 16:42:00,
2013-09-21 12:57:00,88.9,72.0,29.87,ENE,77,0.0,4.0,57,0.00,,,0.00,weatherlink.com 1.10,2013-09-21 16:57:00,
2013-09-21 13:12:00,89.2,71.0,29.87,ESE,108,0.0,4.0,55,0.00,,,0.00,weatherlink.com 1.10,2013-09-21 17:12:00,
2013-09-21 13:27:00,90.2,71.0,29.86,SE,129,1.0,5.0,53,0.00,,,0.00,weatherlink.com 1.10,2013-09-21 17:27:00,
2013-09-21 13:42:00,90.1,71.0,29.86,SSW,210,0.0,6.0,53,0.00,,,0.00,weatherlink.com 1.10,2013-09-21 17:42:00,
2013-09-21 13:57:00,89.7,70.0,29.85,SE,141,3.0,4.0,52,0.00,,,0.00,weatherlink.com 1.10,2013-09-21 17:57:00,
2013-09-21 14:12:00,90.0,72.0,29.84,South,179,1.0,4.0,55,0.00,,,0.00,weatherlink.com 1.10,2013-09-21 18:12:00,
2013-09-21 14:27:00,90.4,73.0,29.84,WSW,249,0.0,5.0,57,0.00,,,0.00,weatherlink.com 1.10,2013-09-21 18:27:00,
2013-09-21 14:42:00,89.4,74.0,29.83,ESE,123,2.0,6.0,60,0.00,,,0.00,weatherlink.com 1.10,2013-09-21 18:42:00,
2013-09-21 14:57:00,89.3,74.0,29.83,NW,312,0.0,5.0,60,0.00,,,0.00,weatherlink.com 1.10,2013-09-21 18:57:00,
2013-09-21 15:12:00,89.5,73.0,29.82,South,190,1.0,5.0,59,0.00,,,0.00,weatherlink.com 1.10,2013-09-21 19:12:00,
2013-09-21 15:27:00,89.2,74.0,29.81,WSW,250,4.0,5.0,61,0.00,,,0.00,weatherlink.com 1.10,2013-09-21 19:27:00,
2013-09-21 15:43:00,88.6,73.0,29.80,West,273,4.0,6.0,60,0.00,,,0.00,weatherlink.com 1.10,2013-09-21 19:43:00,
2013-09-21 15:58:00,87.9,74.0,29.80,WSW,240,1.0,5.0,63,0.00,,,0.00,weatherlink.com 1.10,2013-09-21 19:58:00,
2013-09-21 16:13:00,88.4,74.0,29.80,SE,131,1.0,6.0,62,0.00,,,0.00,weatherlink.com 1.10,2013-09-21 20:13:00,
2013-09-21 16:28:00,88.2,74.0,29.79,SSW,192,1.0,4.0,62,0.00,,,0.00,weatherlink.com 1.10,2013-09-21 20:28:00,
2013-09-21 16:43:00,87.9,74.0,29.79,ESE,114,1.0,5.0,63,0.00,,,0.00,weatherlink.com 1.10,2013-09-21 20:43:00,
2013-09-21 16:58:00,87.7,74.0,29.79,SE,132,0.0,4.0,63,0.00,,,0.00,weatherlink.com 1.10,2013-09-21 20:58:00,
2013-09-21 17:13:00,87.2,73.0,29.78,SSW,205,1.0,4.0,63,0.00,,,0.00,weatherlink.com 1.10,2013-09-21 21:13:00,
2013-09-21 17:28:00,86.5,73.0,29.79,SSW,198,0.0,5.0,65,0.00,,,0.00,weatherlink.com 1.10,2013-09-21 21:28:00,
2013-09-21 17:43:00,85.9,74.0,29.79,ESE,119,0.0,5.0,67,0.00,,,0.00,weatherlink.com 1.10,2013-09-21 21:43:00,
2013-09-21 17:58:00,85.8,74.0,29.79,SSW,198,0.0,4.0,67,0.00,,,0.00,weatherlink.com 1.10,2013-09-21 21:58:00,
2013-09-21 18:13:00,85.4,74.0,29.79,NW,312,2.0,5.0,68,0.00,,,0.00,weatherlink.com 1.10,2013-09-21 22:13:00,
2013-09-21 18:28:00,85.0,72.0,29.79,SE,137,1.0,4.0,66,0.00,,,0.00,weatherlink.com 1.10,2013-09-21 22:28:00,
2013-09-21 18:43:00,85.0,73.0,29.79,WNW,286,0.0,7.0,68,0.00,,,0.00,weatherlink.com 1.10,2013-09-21 22:43:00,
2013-09-21 18:58:00,84.2,73.0,29.79,East,91,0.0,4.0,69,0.00,,,0.00,weatherlink.com 1.10,2013-09-21 22:58:00,
2013-09-21 19:13:00,82.9,72.0,29.79,SE,127,0.0,2.0,70,0.00,,,0.00,weatherlink.com 1.10,2013-09-21 23:13:00,
2013-09-21 19:28:00,82.0,71.0,29.79,WSW,250,0.0,2.0,70,0.00,,,0.00,weatherlink.com 1.10,2013-09-21 23:28:00,
2013-09-21 19:43:00,81.3,72.0,29.78,ESE,123,0.0,1.0,73,0.00,,,0.00,weatherlink.com 1.10,2013-09-21 23:43:00,
2013-09-21 19:58:00,80.6,72.0,29.78,SSW,205,0.0,0.0,75,0.00,,,0.00,weatherlink.com 1.10,2013-09-21 23:58:00,
2013-09-21 20:13:00,80.0,72.0,29.79,SW,215,0.0,0.0,76,0.00,,,0.00,weatherlink.com 1.10,2013-09-22 00:13:00,
2013-09-21 20:28:00,79.6,72.0,29.79,WSW,242,0.0,0.0,78,0.00,,,0.00,weatherlink.com 1.10,2013-09-22 00:28:00,
2013-09-21 20:43:00,79.4,73.0,29.79,WSW,238,0.0,0.0,80,0.00,,,0.00,weatherlink.com 1.10,2013-09-22 00:43:00,
2013-09-21 20:58:00,79.5,73.0,29.80,WSW,255,0.0,0.0,80,0.00,,,0.00,weatherlink.com 1.10,2013-09-22 00:58:00,
2013-09-21 21:13:00,79.5,73.0,29.80,South,183,0.0,1.0,80,0.00,,,0.00,weatherlink.com 1.10,2013-09-22 01:13:00,
2013-09-21 21:28:00,79.4,73.0,29.80,ESE,122,0.0,0.0,81,0.00,,,0.00,weatherlink.com 1.10,2013-09-22 01:28:00,
2013-09-21 21:43:00,79.3,73.0,29.80,SW,228,0.0,1.0,81,0.00,,,0.00,weatherlink.com 1.10,2013-09-22 01:43:00,
2013-09-21 21:58:00,78.9,73.0,29.80,WSW,238,0.0,0.0,82,0.00,,,0.00,weatherlink.com 1.10,2013-09-22 01:58:00,
2013-09-21 22:13:00,78.7,73.0,29.80,SW,219,0.0,0.0,83,0.00,,,0.00,weatherlink.com 1.10,2013-09-22 02:13:00,
2013-09-21 22:28:00,78.9,73.0,29.80,SSW,207,0.0,1.0,83,0.00,,,0.00,weatherlink.com 1.10,2013-09-22 02:28:00,
2013-09-21 22:43:00,79.3,74.0,29.80,WSW,242,0.0,1.0,83,0.00,,,0.00,weatherlink.com 1.10,2013-09-22 02:43:00,
2013-09-21 22:58:00,79.4,74.0,29.80,SE,136,0.0,0.0,83,0.00,,,0.00,weatherlink.com 1.10,2013-09-22 02:58:00,
2013-09-21 23:13:00,79.6,74.0,29.81,SW,226,0.0,1.0,83,0.00,,,0.00,weatherlink.com 1.10,2013-09-22 03:13:00,
2013-09-21 23:28:00,79.8,75.0,29.81,ESE,117,0.0,1.0,84,0.00,,,0.00,weatherlink.com 1.10,2013-09-22 03:28:00,
2013-09-21 23:43:00,79.9,75.0,29.80,ENE,61,0.0,1.0,84,0.00,,,0.00,weatherlink.com 1.10,2013-09-22 03:43:00,
2013-09-21 23:58:00,79.9,75.0,29.80,South,172,0.0,1.0,85,0.00,,,0.00,weatherlink.com 1.10,2013-09-22 03:58:00,